Date String (YYYY-MM-DD hh:mm:ss) UTC,Instrument flags,absolute air pressure of the measurement (hPa),sample flow rate (lpm),inlet stack bypass flow (lpm),air temperature of the measurement (°C),ambient temperature measured by the external sensor (°C),aerosol sample conditioner tube jacket temperature (°C),OPC LED temperature (°C),internal box temperature (°C),relative humidity of the measurement (%),span deviation,mass concentration of particles derived from Lorenz-Mie calculation of OPC scattering (μg/m³),mass concentration of particles derived from Lorenz-Mie calculation of OPC scattering (μg/m³),mass concentration of particles derived from Lorenz-Mie calculation of OPC scattering (μg/m³)
DateTimeUTC,F1_M11,P_M11,Q1_M11,Q2_M11,T1_M11,T2_M11,T3_M11,T4_M11,T5_M11,U1_M11,ZSPAN_M11,X0_M11,X2_M11,X1_M11
2023-07-17 14:00:00,SystemResetWarning,0834.5,4.99,000.00,029.4,027.9,000.0,037.8,031.0,28.8,0001.5,0012.49,0005.35,0004.76
2023-07-17 14:01:00,SystemResetWarning,0834.5,5.01,000.00,029.4,028.0,000.0,037.8,031.0,25.4,0001.7,0013.19,0005.36,0004.77
2023-07-17 14:02:00,SystemResetWarning,0834.5,5.01,000.00,029.4,028.1,000.0,037.8,031.1,21.1,0000.7,0013.28,0005.33,0004.79
2023-07-17 14:03:00,SystemResetWarning,0834.5,5.00,000.00,029.5,028.1,000.0,037.8,031.1,22.7,0002.1,0013.64,0005.34,0004.81
2023-07-17 14:04:00,SystemResetWarning,0834.5,4.98,000.00,029.5,026.7,000.0,037.7,031.0,23.5,0002.3,0013.99,0005.40,0004.84
2023-07-17 14:05:00,SystemResetWarning,0834.5,5.01,000.00,029.4,025.4,000.0,037.6,030.7,25.1,0000.0,0014.11,0005.37,0004.83
2023-07-17 14:06:00,SystemResetWarning,0834.5,5.01,000.00,029.3,025.5,000.0,037.6,030.6,28.1,0000.3,0013.54,0005.35,0004.85
2023-07-17 14:07:00,SystemResetWarning,0834.5,5.01,000.00,029.2,025.8,000.0,037.6,030.5,29.8,0000.1,0012.85,0005.35,0004.85
2023-07-17 14:08:00,SystemResetWarning,0834.5,4.99,000.00,029.2,026.2,000.0,037.7,030.6,31.0,0000.0,0012.89,0005.34,0004.85
2023-07-17 14:09:00,SystemResetWarning,0834.5,4.99,000.00,029.2,026.6,000.0,037.7,030.6,31.4,0000.0,0012.87,0005.32,0004.84
2023-07-17 14:10:00,SystemResetWarning,0834.5,5.00,000.00,029.2,027.0,000.0,037.7,030.7,31.1,0000.0,0011.93,0005.32,0004.84
2023-07-17 14:11:00,SystemResetWarning,0834.5,5.01,000.00,029.2,027.2,000.0,037.7,030.8,30.8,0000.0,0010.96,0005.29,0004.83
2023-07-17 14:12:00,SystemResetWarning,0834.5,5.01,000.00,029.3,027.5,000.0,037.7,030.8,30.6,0000.0,0010.24,0005.29,0004.83
2023-07-17 14:13:00,SystemResetWarning,0834.5,4.99,000.00,029.3,027.7,000.0,037.7,030.9,30.0,0000.0,0009.72,0005.28,0004.82
2023-07-17 14:14:00,SystemResetWarning,0834.7,5.00,000.00,029.3,027.9,000.0,037.7,030.9,25.9,0000.0,0009.20,0005.31,0004.83
2023-07-17 14:15:00,SystemResetWarning,0835.0,5.00,000.00,029.3,028.0,000.0,037.8,031.0,26.1,0000.0,0009.01,0005.28,0004.82
2023-07-17 14:16:00,SystemResetWarning,0835.0,5.01,000.00,029.4,028.1,000.0,037.8,031.1,28.0,0000.2,0008.74,0005.28,0004.81
2023-07-17 14:17:00,SystemResetWarning,0835.0,4.99,000.00,029.4,027.2,000.0,037.7,031.0,25.7,0000.0,0008.84,0005.28,0004.79
2023-07-17 14:18:00,SystemResetWarning,0835.0,5.01,000.00,029.3,025.6,000.0,037.6,030.8,27.0,0000.2,0009.86,0005.33,0004.79
2023-07-17 14:19:00,SystemResetWarning,0834.8,5.01,000.00,029.3,025.4,000.0,037.5,030.7,26.4,0000.5,0010.18,0005.35,0004.78
2023-07-17 14:20:00,SystemResetWarning,0834.8,4.99,000.00,029.2,025.7,000.0,037.5,030.5,25.5,0000.5,0010.08,0005.32,0004.78
2023-07-17 14:21:00,SystemResetWarning,0835.0,4.99,000.00,029.2,026.1,000.0,037.6,030.5,26.0,0000.6,0010.40,0005.27,0004.78
2023-07-17 14:22:00,SystemResetWarning,0835.0,5.01,000.00,029.1,026.5,000.0,037.6,030.6,26.0,0000.5,0011.53,0005.28,0004.79
2023-07-17 14:23:00,SystemResetWarning,0835.1,5.01,000.00,029.2,026.8,000.0,037.6,030.7,25.4,0000.6,0011.73,0005.28,0004.79
2023-07-17 14:24:00,SystemResetWarning,0835.1,5.00,000.00,029.2,027.1,000.0,037.6,030.7,26.7,0000.7,0012.03,0005.32,0004.79
2023-07-17 14:25:00,SystemResetWarning,0834.7,5.00,000.00,029.2,027.4,000.0,037.7,030.8,27.2,0000.3,0012.16,0005.34,0004.78
2023-07-17 14:26:00,SystemResetWarning,0834.6,5.00,000.00,029.2,027.6,000.0,037.7,030.9,28.5,0000.3,0012.69,0005.34,0004.78
2023-07-17 14:27:00,SystemResetWarning,0834.6,5.00,000.00,029.3,027.8,000.0,037.7,030.9,27.5,0000.4,0013.18,0005.35,0004.78
2023-07-17 14:28:00,SystemResetWarning,0834.7,5.00,000.00,029.3,028.0,000.0,037.7,031.0,27.0,0000.6,0013.23,0005.36,0004.81
2023-07-17 14:29:00,SystemResetWarning,0834.6,5.00,000.00,029.3,027.5,000.0,037.7,030.9,25.2,0000.8,0012.33,0005.34,0004.81
2023-07-17 14:30:00,SystemResetWarning,0834.6,4.99,000.00,029.3,025.9,000.0,037.5,030.7,26.6,0001.2,0011.88,0005.31,0004.82
2023-07-17 14:31:00,SystemResetWarning,0835.0,5.01,000.00,029.2,025.3,000.0,037.5,030.6,24.4,0000.9,0011.86,0005.32,0004.83
2023-07-17 14:32:00,SystemResetWarning,0835.1,5.01,000.00,029.1,025.6,000.0,037.4,030.5,24.0,0000.3,0011.76,0005.36,0004.87
2023-07-17 14:33:00,SystemResetWarning,0835.0,4.98,000.00,029.1,026.0,000.0,037.5,030.4,24.8,-000.0,0010.98,0005.43,0004.89
2023-07-17 14:34:00,SystemResetWarning,0834.7,5.01,000.00,029.1,026.3,000.0,037.5,030.5,25.0,-000.7,0010.87,0005.43,0004.90
2023-07-17 14:35:00,SystemResetWarning,0834.9,5.02,000.00,029.1,026.7,000.0,037.5,030.6,24.9,-001.1,0012.34,0005.44,0004.91
2023-07-17 14:36:00,SystemResetWarning,0835.0,5.00,000.00,029.1,027.0,000.0,037.6,030.7,26.2,-001.2,0012.44,0005.42,0004.92
2023-07-17 14:37:00,SystemResetWarning,0834.8,4.99,000.00,029.1,027.3,000.0,037.6,030.7,25.7,-001.7,0012.12,0005.43,0004.93
2023-07-17 14:38:00,SystemResetWarning,0834.6,4.99,000.00,029.2,027.6,000.0,037.6,030.8,24.4,-001.4,0012.22,0005.44,0004.95
2023-07-17 14:39:00,SystemResetWarning,0834.6,5.01,000.00,029.2,027.8,000.0,037.6,030.8,24.2,-000.9,0013.27,0005.48,0004.96
2023-07-17 14:40:00,SystemResetWarning,0834.8,5.01,000.00,029.2,027.9,000.0,037.6,030.9,23.8,-000.9,0014.51,0005.52,0004.97
2023-07-17 14:41:00,SystemResetWarning,0834.7,4.99,000.00,029.3,027.1,000.0,037.5,030.9,23.2,-001.0,0014.81,0005.52,0004.99
2023-07-17 14:42:00,SystemResetWarning,0834.6,4.99,000.00,029.2,025.5,000.0,037.4,030.6,22.5,-001.0,0014.90,0005.57,0005.02
2023-07-17 14:43:00,SystemResetWarning,0834.7,5.02,000.00,029.1,025.3,000.0,037.4,030.5,22.0,-001.0,0015.27,0005.57,0005.04
2023-07-17 14:44:00,SystemResetWarning,0834.8,4.99,000.00,029.1,025.6,000.0,037.4,030.4,21.7,-000.8,0015.25,0005.56,0005.04
2023-07-17 14:45:00,SystemResetWarning,0834.6,5.00,000.00,029.0,026.0,000.0,037.4,030.4,24.1,-000.6,0015.03,0005.57,0005.05
2023-07-17 14:46:00,SystemResetWarning,0834.6,4.99,000.00,029.0,026.4,000.0,037.5,030.5,24.6,-000.3,0013.23,0005.55,0005.05
2023-07-17 14:47:00,SystemResetWarning,0834.6,4.99,000.00,029.0,026.8,000.0,037.5,030.5,25.3,0000.1,0013.29,0005.57,0005.05
2023-07-17 14:48:00,SystemResetWarning,0834.8,5.00,000.00,029.1,027.1,000.0,037.5,030.6,24.7,0000.1,0014.07,0005.61,0005.07
2023-07-17 14:49:00,SystemResetWarning,0835.0,5.00,000.00,029.1,027.3,000.0,037.5,030.7,26.5,0000.3,0013.69,0005.62,0005.09
2023-07-17 14:50:00,SystemResetWarning,0835.1,5.00,000.00,029.1,027.6,000.0,037.5,030.8,26.1,0000.3,0012.68,0005.59,0005.09
2023-07-17 14:51:00,SystemResetWarning,0835.1,4.99,000.00,029.2,027.8,000.0,037.5,030.8,26.1,-000.0,0011.43,0005.56,0005.10
2023-07-17 14:52:00,SystemResetWarning,0835.1,5.00,000.00,029.2,027.8,000.0,037.5,030.9,26.7,-000.1,0010.98,0005.63,0005.12
2023-07-17 14:53:00,SystemResetWarning,0835.1,5.00,000.00,029.2,026.6,000.0,037.4,030.7,26.5,0000.2,0011.00,0005.69,0005.13
2023-07-17 14:54:00,SystemResetWarning,0834.9,5.00,000.00,029.1,025.3,000.0,037.3,030.5,26.1,0000.2,0011.07,0005.68,0005.13
2023-07-17 14:55:00,SystemResetWarning,0834.9,5.01,000.00,029.1,025.4,000.0,037.3,030.4,25.8,0000.7,0011.31,0005.69,0005.16
2023-07-17 14:56:00,SystemResetWarning,0834.9,5.01,000.00,029.0,025.7,000.0,037.3,030.3,26.0,0000.8,0012.12,0005.73,0005.18
2023-07-17 14:57:00,SystemResetWarning,0835.1,5.00,000.00,029.0,026.1,000.0,037.4,030.4,26.8,0001.0,0012.39,0005.78,0005.21
2023-07-17 14:58:00,SystemResetWarning,0835.1,5.00,000.00,029.0,026.5,000.0,037.4,030.5,26.3,0000.5,0012.82,0005.81,0005.23
2023-07-17 14:59:00,SystemResetWarning,0835.0,5.00,000.00,029.0,026.8,000.0,037.4,030.5,26.8,0000.6,0012.39,0005.84,0005.25
